Terug naar catalogus

DELTA 4 R/B

ActiefHEO
NORAD 29250·ROCKET BODY·🇺🇸 United States

Gelanceerd Jun 28, 2006 vanaf Vandenberg Space Force Base

Loading…

Volgende Passages (komende 24 uur)

TLE

VersSource: Space-Track

Epoch: Sep 13, 2026, 23:42 UTC

1 29250U 06027B   26256.98779181  .00000030  00000-0  00000-0 0  9997
2 29250  63.0478 271.5921 6554674 255.8669  27.9192  2.17604559 59679

Volg DELTA 4 R/B in realtime met AllMySat

Download on the App Store